Time,TemperatureF,DewpointF,PressureIn,WindDirection,WindDirectionDegrees,WindSpeedMPH,WindSpeedGustMPH,Humidity,HourlyPrecipIn,Conditions,Clouds,dailyrainin,SoftwareType,DateUTC
2013-07-08 00:10:00,61.9,49.0,30.38,East,98,0.0,0.0,62,0.00,,,0.00,weatherlink.com 1.10,2013-07-08 06:10:00,
2013-07-08 00:25:00,61.0,48.0,30.37,East,98,0.0,0.0,63,0.00,,,0.00,weatherlink.com 1.10,2013-07-08 06:25:00,
2013-07-08 00:40:00,60.4,48.0,30.37,East,98,0.0,2.0,64,0.00,,,0.00,weatherlink.com 1.10,2013-07-08 06:40:00,
2013-07-08 00:55:00,59.9,48.0,30.36,East,98,0.0,0.0,66,0.00,,,0.00,weatherlink.com 1.10,2013-07-08 06:55:00,
2013-07-08 01:10:00,59.4,48.0,30.36,East,98,2.0,3.0,65,0.00,,,0.00,weatherlink.com 1.10,2013-07-08 07:10:00,
2013-07-08 01:25:00,58.5,47.0,30.35,South,188,5.0,6.0,65,0.00,,,0.00,weatherlink.com 1.10,2013-07-08 07:25:00,
2013-07-08 01:40:00,57.9,47.0,30.34,SW,225,2.0,7.0,68,0.00,,,0.00,weatherlink.com 1.10,2013-07-08 07:40:00,
2013-07-08 01:55:00,57.9,47.0,30.34,SW,227,3.0,5.0,68,0.00,,,0.00,weatherlink.com 1.10,2013-07-08 07:55:00,
2013-07-08 02:10:00,57.9,47.0,30.34,SW,236,2.0,6.0,67,0.00,,,0.00,weatherlink.com 1.10,2013-07-08 08:10:00,
2013-07-08 02:25:00,57.9,46.0,30.34,SSE,165,5.0,7.0,65,0.00,,,0.00,weatherlink.com 1.10,2013-07-08 08:25:00,
2013-07-08 02:40:00,58.1,47.0,30.34,SE,124,0.0,3.0,66,0.00,,,0.00,weatherlink.com 1.10,2013-07-08 08:40:00,
2013-07-08 02:55:00,57.7,46.0,30.34,SSW,201,0.0,4.0,66,0.00,,,0.00,weatherlink.com 1.10,2013-07-08 08:55:00,
2013-07-08 03:10:00,56.9,46.0,30.34,SSW,201,0.0,0.0,67,0.00,,,0.00,weatherlink.com 1.10,2013-07-08 09:10:00,
2013-07-08 03:25:00,56.0,46.0,30.34,SSW,201,0.0,0.0,69,0.00,,,0.00,weatherlink.com 1.10,2013-07-08 09:25:00,
2013-07-08 03:40:00,55.3,46.0,30.35,SSW,200,0.0,3.0,70,0.00,,,0.00,weatherlink.com 1.10,2013-07-08 09:40:00,
2013-07-08 03:55:00,55.1,46.0,30.35,SSW,201,3.0,5.0,71,0.00,,,0.00,weatherlink.com 1.10,2013-07-08 09:55:00,
2013-07-08 04:10:00,55.6,46.0,30.36,SSW,205,2.0,7.0,71,0.00,,,0.00,weatherlink.com 1.10,2013-07-08 10:10:00,
2013-07-08 04:25:00,56.8,46.0,30.35,SSE,165,4.0,8.0,68,0.00,,,0.00,weatherlink.com 1.10,2013-07-08 10:25:00,
2013-07-08 04:40:00,58.3,46.0,30.35,SSE,162,6.0,9.0,65,0.00,,,0.00,weatherlink.com 1.10,2013-07-08 10:40:00,
2013-07-08 04:55:00,59.1,46.0,30.36,South,187,4.0,7.0,63,0.00,,,0.00,weatherlink.com 1.10,2013-07-08 10:55:00,
2013-07-08 05:10:00,59.3,47.0,30.36,South,172,2.0,5.0,63,0.00,,,0.00,weatherlink.com 1.10,2013-07-08 11:10:00,
2013-07-08 05:25:00,58.9,46.0,30.36,South,173,2.0,7.0,63,0.00,,,0.00,weatherlink.com 1.10,2013-07-08 11:25:00,
2013-07-08 05:40:00,58.6,45.0,30.36,South,180,0.0,2.0,62,0.00,,,0.00,weatherlink.com 1.10,2013-07-08 11:40:00,
2013-07-08 05:55:00,57.2,45.0,30.36,South,180,2.0,3.0,63,0.00,,,0.00,weatherlink.com 1.10,2013-07-08 11:55:00,
2013-07-08 06:10:00,56.1,44.0,30.37,South,180,3.0,4.0,65,0.00,,,0.00,weatherlink.com 1.10,2013-07-08 12:10:00,
2013-07-08 06:25:00,55.5,45.0,30.37,South,187,3.0,4.0,67,0.00,,,0.00,weatherlink.com 1.10,2013-07-08 12:25:00,
2013-07-08 06:40:00,55.3,45.0,30.37,South,187,0.0,0.0,68,0.00,,,0.00,weatherlink.com 1.10,2013-07-08 12:40:00,
2013-07-08 06:55:00,56.0,46.0,30.38,WNW,299,1.0,4.0,69,0.00,,,0.00,weatherlink.com 1.10,2013-07-08 12:55:00,
2013-07-08 07:10:00,58.0,46.0,30.38,WNW,299,0.0,3.0,64,0.00,,,0.00,weatherlink.com 1.10,2013-07-08 13:10:00,
2013-07-08 07:25:00,61.7,46.0,30.38,WNW,299,0.0,0.0,56,0.00,,,0.00,weatherlink.com 1.10,2013-07-08 13:25:00,
2013-07-08 07:40:00,65.1,47.0,30.38,ESE,108,3.0,5.0,52,0.00,,,0.00,weatherlink.com 1.10,2013-07-08 13:40:00,
2013-07-08 07:56:00,67.2,46.0,30.39,ENE,61,1.0,7.0,47,0.00,,,0.00,weatherlink.com 1.10,2013-07-08 13:56:00,
2013-07-08 08:11:00,69.1,46.0,30.39,SE,132,2.0,5.0,43,0.00,,,0.00,weatherlink.com 1.10,2013-07-08 14:11:00,
2013-07-08 08:26:00,71.8,47.0,30.39,ESE,118,5.0,9.0,41,0.00,,,0.00,weatherlink.com 1.10,2013-07-08 14:26:00,
2013-07-08 08:41:00,72.9,44.0,30.40,SW,221,4.0,9.0,36,0.00,,,0.00,weatherlink.com 1.10,2013-07-08 14:41:00,
2013-07-08 08:56:00,72.9,44.0,30.40,SSW,192,0.0,8.0,36,0.00,,,0.00,weatherlink.com 1.10,2013-07-08 14:56:00,
2013-07-08 09:11:00,72.0,45.0,30.40,SSE,153,6.0,9.0,38,0.00,,,0.00,weatherlink.com 1.10,2013-07-08 15:11:00,
2013-07-08 09:26:00,70.9,45.0,30.40,SSW,194,2.0,7.0,39,0.00,,,0.00,weatherlink.com 1.10,2013-07-08 15:26:00,
2013-07-08 09:41:00,71.9,45.0,30.39,SSE,148,3.0,8.0,38,0.00,,,0.00,weatherlink.com 1.10,2013-07-08 15:41:00,
2013-07-08 09:56:00,74.3,45.0,30.39,ESE,116,7.0,10.0,35,0.00,,,0.00,weatherlink.com 1.10,2013-07-08 15:56:00,
2013-07-08 10:11:00,75.4,45.0,30.40,SE,142,6.0,10.0,34,0.00,,,0.00,weatherlink.com 1.10,2013-07-08 16:11:00,
2013-07-08 10:41:00,78.7,44.0,30.40,NNW,328,0.0,12.0,29,0.00,,,0.00,weatherlink.com 1.10,2013-07-08 16:41:00,
2013-07-08 11:11:00,80.6,42.0,30.40,North,9,6.0,12.0,25,0.00,,,0.00,weatherlink.com 1.10,2013-07-08 17:11:00,
2013-07-08 11:41:00,79.9,35.0,30.40,NW,315,7.0,18.0,20,0.00,,,0.00,weatherlink.com 1.10,2013-07-08 17:41:00,
2013-07-08 11:56:00,81.2,36.0,30.40,NNW,332,4.0,16.0,20,0.00,,,0.00,weatherlink.com 1.10,2013-07-08 17:56:00,
2013-07-08 12:26:00,82.5,38.0,30.39,West,273,8.0,15.0,20,0.00,,,0.00,weatherlink.com 1.10,2013-07-08 18:26:00,
2013-07-08 12:41:00,83.1,37.0,30.39,West,268,4.0,12.0,19,0.00,,,0.00,weatherlink.com 1.10,2013-07-08 18:41:00,
2013-07-08 12:56:00,84.4,35.0,30.38,WSW,240,5.0,18.0,17,0.00,,,0.00,weatherlink.com 1.10,2013-07-08 18:56:00,
2013-07-08 13:26:00,83.3,34.0,30.37,WNW,286,9.0,16.0,17,0.00,,,0.00,weatherlink.com 1.10,2013-07-08 19:26:00,
2013-07-08 13:56:00,83.8,33.0,30.37,WNW,285,6.0,16.0,16,0.00,,,0.00,weatherlink.com 1.10,2013-07-08 19:56:00,
2013-07-08 14:56:00,86.2,32.0,30.36,WNW,290,4.0,17.0,14,0.00,,,0.00,weatherlink.com 1.10,2013-07-08 20:56:00,
2013-07-08 15:41:00,85.9,40.0,30.36,NNW,344,16.0,21.0,20,0.00,,,0.00,weatherlink.com 1.10,2013-07-08 21:41:00,
2013-07-08 15:56:00,84.3,40.0,30.36,NNW,342,7.0,22.0,21,0.00,,,0.00,weatherlink.com 1.10,2013-07-08 21:56:00,
2013-07-08 16:11:00,83.7,40.0,30.36,WNW,293,4.0,22.0,21,0.00,,,0.00,weatherlink.com 1.10,2013-07-08 22:11:00,
2013-07-08 16:26:00,83.4,41.0,30.36,NNW,344,12.0,20.0,22,0.00,,,0.00,weatherlink.com 1.10,2013-07-08 22:26:00,
2013-07-08 16:41:00,84.3,40.0,30.36,North,355,7.0,16.0,21,0.00,,,0.00,weatherlink.com 1.10,2013-07-08 22:41:00,
2013-07-08 16:56:00,83.6,40.0,30.36,NNE,19,8.0,14.0,21,0.00,,,0.00,weatherlink.com 1.10,2013-07-08 22:56:00,
2013-07-08 17:26:00,83.7,40.0,30.35,North,350,9.0,20.0,21,0.00,,,0.00,weatherlink.com 1.10,2013-07-08 23:26:00,
2013-07-08 17:42:00,82.9,39.0,30.35,NNE,13,13.0,18.0,21,0.00,,,0.00,weatherlink.com 1.10,2013-07-08 23:42:00,
2013-07-08 17:56:00,82.7,39.0,30.35,North,355,7.0,16.0,21,0.00,,,0.00,weatherlink.com 1.10,2013-07-08 23:56:00,
2013-07-08 18:11:00,82.3,37.0,30.35,NNE,19,11.0,15.0,20,0.00,,,0.00,weatherlink.com 1.10,2013-07-09 00:11:00,
2013-07-08 18:26:00,83.2,37.0,30.35,North,355,0.0,12.0,19,0.00,,,0.00,weatherlink.com 1.10,2013-07-09 00:26:00,
2013-07-08 19:27:00,77.7,38.0,30.35,NW,320,3.0,5.0,24,0.00,,,0.00,weatherlink.com 1.10,2013-07-09 01:27:00,
2013-07-08 19:42:00,77.0,37.0,30.36,NW,319,2.0,4.0,24,0.00,,,0.00,weatherlink.com 1.10,2013-07-09 01:42:00,
2013-07-08 20:13:00,76.0,38.0,30.36,NW,319,3.0,4.0,25,0.00,,,0.00,weatherlink.com 1.10,2013-07-09 02:13:00,
2013-07-08 20:27:00,75.1,38.0,30.36,NW,319,1.0,4.0,26,0.00,,,0.00,weatherlink.com 1.10,2013-07-09 02:27:00,
2013-07-08 20:42:00,74.0,37.0,30.37,NW,319,3.0,5.0,26,0.00,,,0.00,weatherlink.com 1.10,2013-07-09 02:42:00,
2013-07-08 21:12:00,72.1,37.0,30.37,NW,319,0.0,3.0,28,0.00,,,0.00,weatherlink.com 1.10,2013-07-09 03:12:00,
2013-07-08 21:57:00,70.7,39.0,30.39,SSW,208,1.0,8.0,32,0.00,,,0.00,weatherlink.com 1.10,2013-07-09 03:57:00,
2013-07-08 22:12:00,70.8,39.0,30.39,SSE,154,3.0,6.0,32,0.00,,,0.00,weatherlink.com 1.10,2013-07-09 04:12:00,
2013-07-08 22:27:00,71.0,40.0,30.39,SE,143,4.0,9.0,32,0.00,,,0.00,weatherlink.com 1.10,2013-07-09 04:27:00,
2013-07-08 22:42:00,71.1,39.0,30.39,South,178,5.0,11.0,31,0.00,,,0.00,weatherlink.com 1.10,2013-07-09 04:42:00,
2013-07-08 22:57:00,70.8,39.0,30.39,SSW,192,7.0,10.0,32,0.00,,,0.00,weatherlink.com 1.10,2013-07-09 04:57:00,
2013-07-08 23:12:00,70.3,39.0,30.39,SSW,198,4.0,10.0,32,0.00,,,0.00,weatherlink.com 1.10,2013-07-09 05:12:00,
2013-07-08 23:27:00,69.8,39.0,30.39,SSE,165,1.0,10.0,32,0.00,,,0.00,weatherlink.com 1.10,2013-07-09 05:27:00,
2013-07-08 23:42:00,69.3,38.0,30.39,SSE,151,0.0,4.0,32,0.00,,,0.00,weatherlink.com 1.10,2013-07-09 05:42:00,
2013-07-08 23:57:00,68.1,38.0,30.40,SSE,151,2.0,4.0,33,0.00,,,0.00,weatherlink.com 1.10,2013-07-09 05:57:00,